This demonstration page uses our WeatherBlox Daily Observations layout. Learn more.

Left ArrowRight Arrow

30.21309, -93.2044

Hourly Observations for August 24, 2020

Temp ( °F °C ) Dew Point ( °F °C ) Humidity (%) Winds ( mph kmh ) Pressure ( in mb ) Visibility ( mi km ) Precip ( " mm )
12:15 am 00:15 Clear 78 25.7 72 22.1 81 81 ENE 5 7 29.96 1015 10 16 0.00 0.00
12:35 am 00:35 Clear 78 25.5 72 22 81 81 ENE 6 9 29.96 1015 10 16 0.00 0.00
12:55 am 00:55 Clear 78 25.4 72 22.1 82 82 ENE 5 7 29.95 1014 10 16 0.00 0.00
1:15 am 01:15 Clear 77 25.1 72 22 83 83 NE 3 6 29.95 1014 10 16 0.00 0.00
1:35 am 01:35 Clear 76 24.7 72 22.1 86 86 NNE 3 6 29.96 1015 10 16 0.00 0.00
1:55 am 01:55 Clear 76 24.4 72 22 87 87 NNE 3 6 29.96 1015 10 16 0.00 0.00
2:15 am 02:15 Clear 76 24.3 71 21.9 87 87 NNE 5 7 29.96 1015 10 16 0.00 0.00
2:35 am 02:35 Clear 76 24.5 72 22 86 86 NE 5 7 29.96 1015 7 11 0.00 0.00
2:55 am 02:55 Clear 76 24.3 72 22 87 87 NNE 3 6 29.95 1014 10 16 0.00 0.00
3:15 am 03:15 Clear 76 24.2 72 22 88 88 NE 5 7 29.95 1014 10 16 0.00 0.00
3:35 am 03:35 Clear 76 24.2 72 22 88 88 ENE 5 7 29.95 1014 10 16 0.00 0.00
3:55 am 03:55 Clear 75 24.1 72 22 88 88 ENE 5 7 29.96 1015 10 16 0.00 0.00
4:15 am 04:15 Clear 75 24.1 72 22.1 89 89 NE 6 9 29.95 1014 10 16 0.00 0.00
4:35 am 04:35 Clear 75 23.9 72 22.1 90 90 NNE 7 11 29.96 1015 10 16 0.00 0.00
4:55 am 04:55 Clear 74 23.5 72 22 91 91 NNE 6 9 29.96 1015 10 16 0.00 0.00
5:15 am 05:15 Clear 74 23.4 72 22 92 92 NNE 6 9 29.96 1015 10 16 0.00 0.00
5:35 am 05:35 Clear 74 23.4 72 22.1 92 92 NNE 6 9 29.96 1015 10 16 0.00 0.00
6:00 am 06:00 Mostly Clear 73 23 72 22 94 94 N 8 13 29.96 1015 10 16 0.00 0.00
6:45 am 06:45 Mostly Clear 73 23 72 22 94 94 N 8 13 29.96 1015 10 16 0.00 0.00
7:50 am 07:50 Mostly Sunny 75 24 73 23 94 94 NNE 8 13 29.98 1015 10 16 0.00 0.00
8:53 am 08:53 Mostly Sunny 81 27 73 23 79 79 NE 7 11 29.99 1016 10 16 0.00 0.00
9:54 am 09:54 Mostly Sunny 84 29 73 23 70 70 ENE 10 17 29.99 1016 10 16 0.00 0.00
10:55 am 10:55 Mostly Sunny 88 31 72 22 59 59 NE 12 19 29.99 1016 10 16 0.00 0.00
11:50 am 11:50 Mostly Cloudy 88 31 72 22 59 59 NNE 12 19 29.99 1016 10 16 0.00 0.00
12:53 pm 12:53 Partly Cloudy 90 32 73 23 59 59 NNE 13 20 29.97 1015 10 16 0.00 0.00
1:54 pm 13:54 Mostly Cloudy 91 33 72 22 52 52 ENE 12 19 29.95 1014 10 16 0.00 0.00
2:50 pm 14:50 Mostly Cloudy 91 33 70 21 49 49 NNE 9 15 29.93 1014 10 16 0.00 0.00
3:50 pm 15:50 Partly Cloudy 93 34 70 21 47 47 ENE 10 17 29.92 1013 10 16 0.00 0.00
4:50 pm 16:50 Partly Cloudy 93 34 70 21 47 47 NE 10 17 29.90 1012 10 16 0.00 0.00
5:50 pm 17:50 Partly Cloudy 93 34 70 21 47 47 NNE 10 17 29.89 1012 10 16 0.00 0.00
6:50 pm 18:50 Mostly Sunny 90 32 70 21 52 52 ENE 7 11 29.88 1012 10 16 0.00 0.00
7:50 pm 19:50 Mostly Clear 88 31 70 21 55 55 ENE 6 9 29.88 1012 10 16 0.00 0.00
8:50 pm 20:50 Mostly Clear 84 29 72 22 66 66 Calm 29.90 1013 10 16 0.00 0.00
9:50 pm 21:50 Mostly Clear 82 28 72 22 70 70 Calm 29.91 1013 10 16 0.00 0.00
10:15 pm 22:15 Clear 81 27.4 72 22.1 73 73 N 5 7 29.91 1013 10 16 0.00 0.00
10:35 pm 22:35 Clear 81 27.2 72 22 73 73 N 5 7 29.91 1013 10 16 0.00 0.00
10:55 pm 22:55 Clear 81 27 71 21.9 74 74 N 5 7 29.91 1013 10 16 0.00 0.00
11:15 pm 23:15 Clear 80 26.9 71 21.9 74 74 N 5 7 29.91 1013 10 16 0.00 0.00
11:35 pm 23:35 Clear 80 26.7 72 22 75 75 NNE 7 11 29.91 1013 10 16 0.00 0.00
11:55 pm 23:55 Clear 80 26.8 72 22 75 75 NNE 6 9 29.92 1013 10 16 0.00 0.00

Powered by AerisWeather